FW6321 Weather Reports


time (UTC)temp
C
wind
direction
speed
KPH
gust
KPH
rain 1hr
cm
rain 24hr
cm
rain mn
cm
humidity
%
barometer
mb
20260906040302 11 164 1.6 3.2 0.00 0.00 0.00 96 1026.9
20260906035802 11 164 1.6 4.8 0.00 0.00 0.00 96 1027.0
20260906035306 11 165 1.6 4.8 0.00 0.00 0.00 96 1027.0
20260906034802 11 165 1.6 4.8 0.00 0.00 0.00 96 1026.9
20260906034750 11 165 1.6 4.8 0.00 0.00 0.00 96 1027.1
20260906033806 11 165 1.6 6.4 0.00 0.00 0.00 95 1027.1
20260906033747 11 164 1.6 6.4 0.00 0.00 0.00 96 1027.1
20260906032805 11 170 1.6 4.8 0.00 0.00 0.00 96 1027.2
20260906032306 11 170 3.2 4.8 0.00 0.00 0.00 96 1027.3
20260906031805 11 175 3.2 4.8 0.00 0.00 0.00 96 1027.2
20260906031302 11 175 1.6 4.8 0.00 0.00 0.00 95 1027.1
20260906030803 11 175 1.6 4.8 0.00 0.00 0.00 95 1027.2
20260906030304 11 175 0.0 1.6 0.00 0.00 0.00 95 1026.9
20260906030249 11 175 0.0 1.6 0.00 0.00 0.00 95 1026.9
20260906025306 11 175 0.0 1.6 0.00 0.00 0.00 95 1027.1
20260906024804 11 175 0.0 1.6 0.00 0.00 0.00 95 1027.2
20260906024305 11 175 0.0 1.6 0.00 0.00 0.00 95 1027.2
20260906024243 12 175 0.0 1.6 0.00 0.00 0.00 95 1027.3
20260906023304 12 175 0.0 1.6 0.00 0.00 0.00 96 1027.4
20260906022805 11 176 0.0 1.6 0.00 0.00 0.00 95 1027.5
20260906022306 11 175 0.0 1.6 0.00 0.00 0.00 95 1027.4
20260906021802 12 175 1.6 3.2 0.00 0.00 0.00 95 1027.6
20260906021302 12 175 1.6 4.8 0.00 0.00 0.00 95 1027.6
20260906020801 12 187 1.6 4.8 0.00 0.00 0.00 95 1027.6
20260906020302 12 179 1.6 6.4 0.00 0.00 0.00 95 1027.9
20260906015802 12 167 1.6 6.4 0.00 0.00 0.00 95 1027.8
20260906015305 12 187 1.6 4.8 0.00 0.00 0.00 95 1027.7
20260906014802 12 175 1.6 4.8 0.00 0.00 0.00 95 1027.7
20260906014303 12 175 0.0 3.2 0.00 0.00 0.00 95 1027.5
20260906013805 12 175 1.6 3.2 0.00 0.00 0.00 95 1027.5
20260906013744 12 174 0.0 3.2 0.00 0.00 0.00 95 1027.3
20260906013249 12 175 0.0 3.2 0.00 0.00 0.00 95 1027.3
20260906012306 12 175 0.0 3.2 0.00 0.00 0.00 95 1027.3
20260906011802 12 175 1.6 3.2 0.00 0.00 0.00 95 1027.2
20260906011305 12 175 1.6 3.2 0.00 0.00 0.00 94 1027.3
20260906010802 12 175 0.0 1.6 0.00 0.00 0.00 95 1027.3
20260906010721 12 175 0.0 1.6 0.00 0.00 0.00 95 1027.3
20260906005803 12 175 0.0 1.6 0.00 0.00 0.00 94 1027.4
20260906005306 12 175 0.0 4.8 0.00 0.00 0.00 94 1027.5
20260906004803 12 175 0.0 4.8 0.00 0.00 0.00 94 1027.5
20260906004305 12 170 0.0 1.6 0.00 0.00 0.00 94 1027.5
20260906003803 12 170 1.6 4.8 0.00 0.00 0.00 94 1027.4
20260906003723 12 170 1.6 4.8 0.00 0.00 0.00 94 1027.4
20260906002803 12 160 1.6 4.8 0.00 0.00 0.00 94 1027.5
20260906002306 12 159 1.6 6.4 0.00 0.00 0.00 94 1027.4
20260906001805 12 171 0.0 6.4 0.00 0.00 0.00 94 1027.4
20260906001745 12 203 1.6 3.2 0.00 0.00 0.00 94 1027.4
20260906000803 12 203 1.6 3.2 0.00 0.00 0.00 94 1027.4
20260906000303 12 203 0.0 1.6 0.00 0.00 0.00 94 1027.3
20260905235803 12 203 0.0 3.2 0.00 0.00 0.00 94 1027.3
20260905235306 12 203 1.6 3.2 0.00 0.00 0.00 93 1027.4
20260905234804 12 203 0.0 3.2 0.00 0.00 0.00 93 1027.3
20260905234306 12 203 0.0 1.6 0.00 0.00 0.00 93 1027.3
20260905234241 12 203 0.0 1.6 0.00 0.00 0.00 93 1027.2
20260905233303 12 202 0.0 1.6 0.00 0.00 0.00 93 1027.2
20260905232803 12 203 0.0 1.6 0.00 0.00 0.00 93 1027.3
20260905232306 12 203 1.6 3.2 0.00 0.00 0.00 93 1027.2
20260905231804 12 202 1.6 3.2 0.00 0.00 0.00 93 1027.2
20260905231306 12 203 1.6 3.2 0.00 0.00 0.00 93 1027.2
20260905230804 12 203 1.6 3.2 0.00 0.00 0.00 93 1027.2
20260905230317 12 203 0.0 3.2 0.00 0.00 0.00 93 1027.2
20260905225802 12 203 0.0 1.6 0.00 0.00 0.00 92 1027.2
20260905225305 12 203 1.6 1.6 0.00 0.00 0.00 92 1027.2
20260905224806 12 203 0.0 1.6 0.00 0.00 0.00 92 1027.1
20260905224303 12 203 0.0 0.0 0.00 0.00 0.00 92 1027.2
20260905223803 12 203 0.0 0.0 0.00 0.00 0.00 92 1027.2
20260905223302 12 202 0.0 1.6 0.00 0.00 0.00 92 1027.2
20260905223251 12 203 0.0 1.6 0.00 0.00 0.00 92 1027.3
20260905222306 12 203 1.6 1.6 0.00 0.00 0.00 91 1027.1
20260905221804 12 203 0.0 1.6 0.00 0.00 0.00 91 1027.1
20260905221302 12 202 0.0 1.6 0.00 0.00 0.00 91 1027.1
20260905220803 13 203 0.0 3.2 0.00 0.00 0.00 91 1027.0
20260905220303 13 203 1.6 3.2 0.00 0.00 0.00 91 1027.1
20260905215802 13 203 1.6 3.2 0.00 0.00 0.00 91 1027.1
20260905215305 13 204 1.6 3.2 0.00 0.00 0.00 91 1027.0
20260905214802 13 199 0.0 3.2 0.00 0.00 0.00 91 1027.1
20260905214306 13 199 1.6 1.6 0.00 0.00 0.00 90 1027.0
20260905213804 13 199 0.0 1.6 0.00 0.00 0.00 90 1026.9
20260905213738 13 199 0.0 1.6 0.00 0.00 0.00 90 1027.0
20260905212804 13 199 1.6 3.2 0.00 0.00 0.00 90 1027.0
20260905212306 13 199 3.2 4.8 0.00 0.00 0.00 90 1026.8
20260905211803 13 188 1.6 4.8 0.00 0.00 0.00 90 1026.8
20260905211305 13 325 0.0 3.2 0.00 0.00 0.00 90 1026.8
20260905210802 13 325 0.0 3.2 0.00 0.00 0.00 89 1026.8
20260905210728 13 325 0.0 3.2 0.00 0.00 0.00 89 1026.7
20260905205801 13 325 0.0 1.6 0.00 0.00 0.00 88 1026.7
20260905205301 13 325 0.0 1.6 0.00 0.00 0.00 88 1026.8
20260905204757 13 325 0.0 1.6 0.00 0.00 0.00 88 1026.7
20260905204255 13 325 1.6 3.2 0.00 0.00 0.00 88 1026.7
20260905204233 13 325 1.6 4.8 0.00 0.00 0.00 88 1026.7
20260905203256 13 325 1.6 4.8 0.00 0.00 0.00 87 1026.7
20260905203157 14 258 1.6 3.2 0.00 0.00 0.00 87 1026.7
20260905202953 14 258 1.6 3.2 0.00 0.00 0.00 87 1026.6
20260905202236 14 258 0.0 3.2 0.00 0.00 0.00 86 1026.7
20260905201252 14 258 0.0 1.6 0.00 0.00 0.00 86 1026.6
20260905200752 14 258 0.0 1.6 0.00 0.00 0.00 85 1026.5
20260905200253 14 258 0.0 1.6 0.00 0.00 0.00 84 1026.5
20260905195751 15 258 0.0 1.6 0.00 0.00 0.00 84 1026.6
20260905195248 15 258 0.0 1.6 0.00 0.00 0.00 84 1026.5
20260905194749 15 258 0.0 1.6 0.00 0.00 0.00 83 1026.5
20260905194247 15 258 0.0 1.6 0.00 0.00 0.00 82 1026.5
20260905193749 15 258 0.0 1.6 0.00 0.00 0.00 82 1026.5
20260905193249 15 258 0.0 1.6 0.00 0.00 0.00 82 1026.5
20260905192748 15 258 0.0 1.6 0.00 0.00 0.00 81 1026.3
20260905192244 15 258 0.0 1.6 0.00 0.00 0.00 80 1026.3
20260905191744 15 258 0.0 1.6 0.00 0.00 0.00 79 1026.2
20260905191243 16 258 0.0 1.6 0.00 0.00 0.00 78 1026.4
20260905191218 16 258 0.0 1.6 0.00 0.00 0.00 77 1026.3
20260905190243 16 258 0.0 0.0 0.00 0.00 0.00 76 1026.1
20260905185742 16 258 0.0 3.2 0.00 0.00 0.00 76 1026.3
20260905185240 16 258 1.6 4.8 0.00 0.00 0.00 76 1026.2
20260905184739 16 258 1.6 4.8 0.00 0.00 0.00 75 1026.1
20260905184717 17 258 1.6 4.8 0.00 0.00 0.00 75 1026.1
20260905184226 17 253 3.2 4.8 0.00 0.00 0.00 74 1025.9
20260905183950 17 258 1.6 4.8 0.00 0.00 0.00 74 1026.1
20260905182738 17 243 3.2 6.4 0.00 0.00 0.00 73 1025.8
20260905182239 17 237 4.8 9.7 0.00 0.00 0.00 73 1025.9
20260905181737 17 239 4.8 11.3 0.00 0.00 0.00 73 1025.8
20260905181241 17 270 6.4 11.3 0.00 0.00 0.00 72 1025.9
20260905180738 18 240 6.4 12.9 0.00 0.00 0.00 72 1025.9
20260905180238 18 254 6.4 12.9 0.00 0.00 0.00 72 1025.9
20260905175740 18 243 6.4 14.5 0.00 0.00 0.00 72 1025.8
20260905175239 18 247 6.4 14.5 0.00 0.00 0.00 72 1025.8
20260905174740 18 280 6.4 12.9 0.00 0.00 0.00 72 1025.9
20260905174237 18 253 8.0 12.9 0.00 0.00 0.00 72 1025.8
20260905173738 18 260 6.4 12.9 0.00 0.00 0.00 72 1025.7
20260905173715 18 264 6.4 12.9 0.00 0.00 0.00 72 1025.8
20260905172749 18 254 8.0 16.1 0.00 0.00 0.00 71 1025.8
20260905172738 18 269 8.0 14.5 0.00 0.00 0.00 71 1025.8
20260905171740 18 261 6.4 16.1 0.00 0.00 0.00 70 1025.7
20260905171239 18 258 4.8 12.9 0.00 0.00 0.00 70 1025.7
20260905170741 18 262 6.4 14.5 0.00 0.00 0.00 70 1025.6
20260905170238 18 229 8.0 19.3 0.00 0.00 0.00 69 1025.6
20260905165737 18 287 8.0 19.3 0.00 0.00 0.00 69 1025.5
20260905165236 18 249 8.0 19.3 0.00 0.00 0.00 69 1025.6
20260905164735 18 269 8.0 14.5 0.00 0.00 0.00 68 1025.5
20260905164730 18 264 9.7 19.3 0.00 0.00 0.00 68 1025.5
20260905163738 18 230 11.3 22.5 0.00 0.00 0.00 68 1025.5
20260905163237 18 283 9.7 22.5 0.00 0.00 0.00 68 1025.4
20260905162741 18 245 8.0 16.1 0.00 0.00 0.00 68 1025.3
20260905162236 18 245 9.7 17.7 0.00 0.00 0.00 68 1025.3
20260905162215 18 241 12.9 19.3 0.00 0.00 0.00 67 1025.3
20260905161240 18 247 11.3 19.3 0.00 0.00 0.00 67 1025.3
20260905160737 18 227 11.3 19.3 0.00 0.00 0.00 67 1025.3
20260905160236 18 275 11.3 20.9 0.00 0.00 0.00 67 1025.2
20260905155738 18 245 11.3 20.9 0.00 0.00 0.00 67 1025.2
20260905155721 18 265 11.3 20.9 0.00 0.00 0.00 66 1025.1
20260905154737 18 225 11.3 25.7 0.00 0.00 0.00 66 1024.9
20260905154234 18 268 12.9 25.7 0.00 0.00 0.00 66 1024.8
20260905153735 18 247 11.3 20.9 0.00 0.00 0.00 67 1024.7
20260905153233 18 260 12.9 24.1 0.00 0.00 0.00 67 1024.8
20260905152733 18 259 12.9 24.1 0.00 0.00 0.00 67 1024.7
20260905152238 18 252 11.3 24.1 0.00 0.00 0.00 66 1024.7
20260905151738 18 265 11.3 25.7 0.00 0.00 0.00 67 1024.7
20260905151235 18 316 12.9 25.7 0.00 0.00 0.00 67 1024.7
20260905150730 18 260 12.9 29.0 0.00 0.00 0.00 67 1024.6
20260905150234 18 243 12.9 29.0 0.00 0.00 0.00 66 1024.5
20260905145732 18 261 11.3 25.7 0.00 0.00 0.00 67 1024.6
20260905145234 18 285 12.9 27.4 0.00 0.00 0.00 67 1024.5
20260905144735 19 239 12.9 27.4 0.00 0.00 0.00 65 1024.4
20260905144233 19 274 11.3 24.1 0.00 0.00 0.00 66 1024.4
20260905143732 18 266 12.9 25.7 0.00 0.00 0.00 68 1024.4
20260905143708 18 257 12.9 25.7 0.00 0.00 0.00 68 1024.3
20260905142735 18 260 12.9 25.7 0.00 0.00 0.00 69 1024.2
20260905142233 18 246 12.9 25.7 0.00 0.00 0.00 69 1024.3
20260905141732 18 250 12.9 29.0 0.00 0.00 0.00 69 1024.2
20260905141232 18 241 14.5 29.0 0.00 0.00 0.00 68 1024.2
20260905140731 19 234 12.9 25.7 0.00 0.00 0.00 68 1024.1
20260905140235 19 256 12.9 25.7 0.00 0.00 0.00 68 1024.1
20260905135730 19 268 11.3 22.5 0.00 0.00 0.00 66 1024.1
20260905135233 20 279 11.3 25.7 0.00 0.00 0.00 64 1024.1
20260905134821 20 281 12.9 25.7 0.00 0.00 0.00 65 1024.0
20260905134433 19 239 14.5 30.6 0.00 0.00 0.00 68 1023.7
20260905134423 19 292 14.5 30.6 0.00 0.00 0.00 67 1023.7
20260905134412 20 262 12.9 22.5 0.00 0.00 0.00 67 1023.7
20260905134313 20 267 12.9 24.1 0.00 0.00 0.00 66 1023.9
20260905133758 20 235 12.9 29.0 0.00 0.00 0.00 67 1023.8
20260905133442 19 276 12.9 29.0 0.00 0.00 0.00 68 1023.8
20260905130931 20 268 12.9 25.7 0.00 0.00 0.00 69 1023.6
20260905130756 20 279 12.9 25.7 0.00 0.00 0.00 67 1023.6
20260905125732 19 280 12.9 27.4 0.00 0.00 0.00 69 1023.6
20260905125227 20 245 12.9 27.4 0.00 0.00 0.00 68 1023.5
20260905124728 20 282 12.9 22.5 0.00 0.00 0.00 66 1023.5
20260905124223 20 241 12.9 27.4 0.00 0.00 0.00 67 1023.4
20260905123728 20 274 12.9 30.6 0.00 0.00 0.00 65 1023.5
20260905123319 21 310 14.5 30.6 0.00 0.00 0.00 65 1023.3
20260905123239 21 251 16.1 30.6 0.00 0.00 0.00 65 1023.3
20260905122227 21 222 14.5 27.4 0.00 0.00 0.00 63 1023.2
20260905121727 20 242 16.1 27.4 0.00 0.00 0.00 64 1023.1
20260905121311 20 236 19.3 38.6 0.00 0.03 0.00 63 1023.1
20260905121240 20 217 17.7 30.6 0.00 0.03 0.00 64 1023.1
20260905120225 20 230 17.7 38.6 0.00 0.03 0.00 65 1023.1
20260905115725 20 235 17.7 38.6 0.00 0.03 0.00 65 1023.1
20260905115223 20 225 19.3 41.8 0.00 0.03 0.00 63 1023.0
20260905114725 20 233 19.3 41.8 0.00 0.18 0.00 64 1023.0
20260905114226 20 208 20.9 40.2 0.00 0.18 0.00 64 1023.0
20260905113724 20 241 20.9 40.2 0.00 0.18 0.00 65 1022.9
20260905113226 20 268 19.3 33.8 0.00 0.18 0.00 65 1022.9
20260905112725 20 298 19.3 37.0 0.00 0.20 0.00 66 1022.8
20260905112224 20 175 19.3 37.0 0.00 0.23 0.00 66 1022.7
20260905111720 20 247 17.7 29.0 0.00 0.23 0.00 67 1022.7
20260905111221 20 227 17.7 32.2 0.00 0.23 0.00 67 1022.5
20260905110719 20 294 17.7 32.2 0.00 0.23 0.00 67 1022.6
20260905110221 19 253 19.3 43.5 0.00 0.23 0.00 67 1022.6
20260905110205 19 291 19.3 43.5 0.00 0.23 0.00 67 1022.5
20260905105708 20 236 19.3 40.2 0.00 0.23 0.00 68 1022.4
20260905104715 19 241 19.3 40.2 0.00 0.23 0.00 69 1022.4
20260905104217 19 223 19.3 33.8 0.00 0.23 0.00 68 1022.4
20260905103715 20 240 19.3 37.0 0.00 0.23 0.00 68 1022.4
20260905103218 20 234 17.7 37.0 0.00 0.23 0.00 68 1022.2
20260905102715 20 247 17.7 40.2 0.00 0.23 0.00 67 1022.2
20260905102702 20 225 17.7 40.2 0.00 0.23 0.00 66 1022.1
20260905101717 20 235 17.7 33.8 0.00 0.23 0.00 66 1022.1
20260905101217 20 243 16.1 32.2 0.00 0.23 0.00 67 1022.1
20260905100716 20 255 17.7 38.6 0.00 0.23 0.00 69 1022.0
20260905100216 20 256 19.3 40.2 0.00 0.23 0.00 68 1021.9
20260905095716 20 298 17.7 40.2 0.00 0.23 0.00 70 1021.9
20260905095212 20 207 20.9 40.2 0.00 0.23 0.00 69 1021.9
20260905094705 20 248 19.3 40.2 0.00 0.23 0.00 68 1021.8
20260905094202 20 280 16.1 32.2 0.00 0.23 0.00 70 1021.8
20260905094151 20 199 17.7 37.0 0.00 0.23 0.00 71 1021.7
20260905093644 20 237 20.9 37.0 0.00 0.23 0.00 70 1021.6
20260905093146 19 226 17.7 40.2 0.00 0.23 0.00 72 1021.7
20260905092159 19 241 19.3 40.2 0.00 0.23 0.00 72 1021.6
20260905091659 19 252 20.9 41.8 0.00 0.23 0.00 72 1021.5
20260905091159 19 247 19.3 41.8 0.00 0.23 0.00 74 1021.3
20260905090659 19 204 19.3 33.8 0.00 0.23 0.00 73 1021.4
20260905090200 19 235 19.3 40.2 0.00 0.23 0.00 73 1021.3
20260905085700 18 242 17.7 40.2 0.00 0.23 0.00 74 1021.4
20260905085201 18 290 14.5 37.0 0.00 0.23 0.00 76 1021.2
20260905084701 18 255 12.9 29.0 0.00 0.23 0.00 76 1021.1
20260905084153 18 231 11.3 22.5 0.00 0.23 0.00 77 1021.0
20260905083652 18 246 14.5 32.2 0.00 0.23 0.00 76 1021.0
20260905083148 18 275 19.3 32.2 0.00 0.23 0.00 75 1021.0
20260905082651 18 229 17.7 30.6 0.00 0.23 0.00 76 1020.8
20260905082151 18 240 16.1 27.4 0.00 0.23 0.00 77 1020.7
20260905082130 18 230 14.5 27.4 0.00 0.23 0.00 77 1020.6
20260905081634 18 242 14.5 27.4 0.00 0.23 0.00 79 1020.5
20260905081148 18 227 14.5 27.4 0.00 0.23 0.00 78 1020.5
20260905080150 18 239 12.9 27.4 0.00 0.23 0.00 79 1020.4
20260905075650 18 208 11.3 25.7 0.00 0.23 0.00 80 1020.4
20260905075150 18 241 12.9 25.7 0.00 0.23 0.00 80 1020.4
20260905075137 18 204 14.5 25.7 0.00 0.23 0.00 80 1020.2
20260905074147 18 211 14.5 30.6 0.00 0.23 0.00 81 1020.2
20260905073648 17 260 14.5 30.6 0.00 0.23 0.00 81 1019.9
20260905073151 17 233 16.1 30.6 0.00 0.23 0.00 82 1020.0
20260905073132 17 230 16.1 30.6 0.00 0.23 0.00 82 1020.0
20260905072146 17 240 12.9 25.7 0.00 0.23 0.00 83 1019.9
20260905071648 17 241 11.3 22.5 0.00 0.23 0.00 84 1019.8
20260905071149 17 237 11.3 19.3 0.00 0.23 0.00 85 1019.7
20260905070650 17 273 11.3 20.9 0.00 0.23 0.00 85 1019.7
20260905070235 17 177 9.7 19.3 0.00 0.23 0.00 86 1019.6
20260905070203 17 233 9.7 20.9 0.00 0.23 0.00 86 1019.7
20260905065148 17 239 8.0 19.3 0.00 0.23 0.00 86 1019.7
20260905065136 16 253 8.0 16.1 0.00 0.23 0.00 87 1019.5
20260905064147 16 218 6.4 16.1 0.00 0.23 0.00 87 1019.5
20260905063849 16 216 8.0 14.5 0.00 0.23 0.00 87 1019.5
20260905063353 16 223 8.0 14.5 0.00 0.23 0.00 88 1019.5
20260905062151 16 208 6.4 14.5 0.00 0.23 0.00 89 1019.3
20260905061646 16 211 8.0 16.1 0.00 0.23 0.00 90 1019.2
20260905061144 16 229 6.4 16.1 0.00 0.23 0.00 90 1019.2
20260905060641 15 185 6.4 16.1 0.00 0.23 0.00 91 1019.2
20260905060140 15 229 6.4 16.1 0.00 0.23 0.00 91 1019.2
20260905055641 15 232 6.4 12.9 0.00 0.23 0.00 91 1019.1
20260905055142 15 214 4.8 12.9 0.00 0.23 0.00 91 1019.1
20260905054640 15 210 4.8 12.9 0.00 0.23 0.00 91 1019.1
20260905054139 15 247 4.8 12.9 0.00 0.23 0.00 92 1019.0
20260905053639 15 189 6.4 12.9 0.00 0.23 0.00 91 1018.9
20260905053140 14 200 4.8 12.9 0.00 0.23 0.00 91 1018.9
20260905052638 14 221 4.8 12.9 0.00 0.23 0.00 91 1018.9
20260905052136 14 197 4.8 9.7 0.00 0.23 0.00 91 1018.8
20260905051638 14 222 4.8 11.3 0.00 0.23 0.00 91 1018.7
20260905051135 14 219 4.8 11.3 0.00 0.23 0.00 91 1018.7
20260905050637 14 209 4.8 9.7 0.00 0.23 0.00 91 1018.6
20260905050133 14 212 4.8 11.3 0.00 0.23 0.00 91 1018.6
20260905045634 14 215 4.8 14.5 0.00 0.23 0.00 91 1018.5
20260905045609 14 234 6.4 14.5 0.00 0.23 0.00 91 1018.5
20260905044631 14 220 4.8 12.9 0.00 0.23 0.00 91 1018.5
20260905044130 14 224 4.8 12.9 0.00 0.23 0.00 91 1018.4
20260905043630 14 242 4.8 12.9 0.00 0.23 0.00 90 1018.3
20260905043135 14 225 4.8 12.9 0.00 0.23 0.00 90 1018.3
20260905042631 14 245 4.8 9.7 0.00 0.23 0.00 90 1018.3
20260905042130 14 232 4.8 11.3 0.00 0.23 0.00 90 1018.3
20260905041634 14 233 4.8 11.3 0.00 0.23 0.00 90 1018.3
20260905041132 14 233 4.8 9.7 0.00 0.23 0.00 90 1018.3
20260905040833 14 229 4.8 12.9 0.00 0.23 0.00 90 1018.3
20260905040337 14 205 4.8 12.9 0.00 0.23 0.00 89 1018.2